Showing default

HERMES 4, 63833

Orbit data source: Space-Track

HERMES 4, 63833 is a payload satellite owned by ASI (IT) in SSO that was launched on Sat, 15 Mar 2025 UTC via an FALCON 9 launch vehicle from the Air Force Western Test Range (AFWTR). Payload-class satellites include a variety of spacecraft equipped with specific instruments for various scientific and technological missions. These include communications satellites like Starlink; space stations such as the ISS; scientific satellites like the Hubble; Earth observation satellites from companies like Planet Labs, Umbra, and HawkEye 360; GPS; miniature CubeSats for education and research; and military/defense satellites.

Loading next visibility...
Identifier
63833, 2025-052BP
Orbit
SSO
Country
Flag of ITIT
Related business
Manufacturer
MILANP/INAFI
Mission
Operational Civil Astronomy
Bus & Motor
CUBESAT 3U, Unknown motor
Mass
5 kg wet, 5 kg dry
Launch date (UTC)
2025-03-15 (1 year ago)
Launch vehicle
FALCON 9
Launch site
Air Force Western Test Range (AFWTR)
Object type
Payload
Rocket body
Debris
Shape & HBR
Box, 14.5 m
Radar Cross Section
0.035 m², Small (<0.1 m²)

Expand to show TLE details & history
Last TLE update: 7 hours ago

TLE from 7 hours ago
0 HERMES 4
1 63833U 25052BP  26129.95721763  .00011496  00000-0  41106-3 0  9993
2 63833  97.3912  24.0193 0002882  33.7889 326.3535 15.28965393 64102
Epoch: 2026-05-09T22:58Z
TLE epoch observation values (Epoch: 2026-05-09T22:58:23.603Z)
Latitude
0.00007°
Longitude
171.65374°
Altitude
480.361 km
Speed
7.626 km/s
True Right ascension
01h 36m 04s
True Declination
0° 00' 00"
Sunlit
Object was in daylight at epoch
Visualization orbit readout
Latitude
Unknown
Longitude
Unknown
Altitude
Unknown
Speed
Unknown
Apparent Right ascension
Unknown
Apparent Declination
Unknown
Sunlit
N/A
Visualization observer readout
Local Sidereal Time
14:20:14
Azimuth
Unknown
Elevation
Unknown
Doppler factor
Unknown
Orbital elements
Apogee altitude
477.832 km
Perigee altitude
473.882 km
Semi-major axis
6,853.994 km
Eccentricity
0.00029
Inclination
97.3912°
RAAN
24.0193°
Arg. of periapsis
33.7889°
True anomaly
326.3352°
Mean anomaly
326.3535°
Eccentric anomaly
326.34435°
Mean motion
3.82497 °/min
Orbital period
94.12 mins
BSTAR
0.00041106
Loading maneuver chart data...
Computing Atmospheric mass density...
Loading historical data...
Loading historical data...
Loading historical data...
Loading historical data...
Loading historical data...
Loading historical data...
Loading historical data...

Documentation

Showing up to 5 results
|